Helicity
126 157 125 92 136 127 113 130 131 125 115 72 44 4 17 34 23 40 46 37 35 33 31 53 99 120 129 162 193 216 226 217 245 266 249 270 216 215 240 232 227 216 199 208
203 167 151 110 104 134 133 134 129 124 96 69 49 -1 12 34 39 54 62 72 66 55 37 32 55 96 119 127 147 164 191 192 227 284 284 325 258 233 245 268 240 232 251 237
41 75 60 160 129 117 154 135 112 87 87 27 20 -28 68 58 51 47 54 57 66 79 107 113 112 112 94 94 122 159 170 148 162 229 309 438 409 377 283 294 250 253 282 284
100 76 21 7 71 113 155 67 73 99 75 55 72 -10 54 77 131 109 126 158 139 128 137 127 156 152 128 112 106 117 162 188 188 190 255 277 291 305 295 295 278 305 336 342
118 54 49 77 85 48 93 85 63 44 40 35 69 39 71 95 142 201 235 262 215 141 137 165 167 162 162 125 84 79 104 155 211 186 201 246 246 275 308 272 276 313 341 341
151 158 87 62 105 86 52 103 72 56 44 67 62 59 76 99 161 215 167 160 159 125 114 93 93 113 127 134 147 136 109 98 109 153 171 204 187 202 266 273 297 349 361 364
122 133 102 101 158 149 93 104 88 96 114 67 54 65 37 89 76 61 40 57 86 78 92 105 131 166 208 216 178 145 145 124 88 91 106 120 127 172 206 231 247 279 295 343
104 97 88 87 72 48 109 82 78 120 107 94 58 74 52 47 24 16 38 59 30 33 36 77 89 97 115 122 132 146 144 143 101 65 52 54 52 98 139 166 217 258 270 263
84 100 107 76 74 80 66 99 75 46 48 101 59 42 35 58 47 36 83 29 -4 -12 -33 -26 -4 26 55 84 112 144 152 150 147 120 81 71 62 67 99 131 188 199 227 276
71 93 68 83 84 126 68 47 88 93 97 115 75 61 45 53 126 115 88 -10 13 -11 -13 -33 -36 -43 -5 71 115 147 159 157 160 159 144 102 67 42 56 122 167 217 254 303
63 66 91 74 56 48 94 81 85 62 66 57 85 44 14 25 69 45 -27 -5 -13 -9 -26 -17 10 21 59 106 124 208 271 235 196 175 149 103 94 62 93 124 182 223 247 268
77 53 64 67 38 49 57 34 58 53 47 65 42 34 53 -2 -8 -41 -4 -15 -11 -27 -10 4 19 24 93 100 108 159 209 263 229 156 140 70 76 51 81 128 146 195 215 220
37 56 70 65 33 48 31 52 71 71 62 25 38 24 41 4 -7 17 0 -6 0 -24 -15 10 24 72 75 100 125 157 183 176 242 157 99 42 39 35 75 109 130 155 168 169
43 34 28 23 21 26 44 63 90 89 67 65 58 41 79 63 31 44 39 41 15 11 21 1 11 50 59 52 72 50 97 117 61 -2 -23 18 30 95 126 172 199 204 218 271
35 21 14 25 18 29 22 23 57 92 100 60 52 74 104 97 77 46 19 27 15 8 4 -9 29 53 80 52 15 -34 -24 -10 -2 40 56 107 128 168 183 224 233 272 316 304
82 13 13 27 19 7 24 6 20 16 26 63 70 102 100 63 -9 -9 20 0 8 8 4 -7 29 64 85 57 19 -3 -19 1 34 56 85 111 163 196 221 228 244 272 285 280
59 29 24 23 31 28 22 12 90 97 68 60 70 129 75 42 9 -2 -1 10 -9 6 15 -1 22 61 79 48 11 26 23 16 44 46 62 98 142 206 223 225 217 205 210 220
58 49 21 19 35 25 21 43 79 85 53 99 87 106 84 40 24 78 70 8 -18 6 26 23 33 52 42 24 20 43 43 -26 35 46 33 58 94 110 97 202 207 256 241 258
45 40 28 31 22 24 40 32 43 20 35 6 19 45 26 1 25 63 47 36 22 22 18 23 26 24 22 30 40 48 45 29 48 31 45 116 125 169 150 177 212 190 242 267
79 57 44 26 30 35 53 63 44 38 36 19 4 30 15 -9 31 28 61 60 43 21 32 37 30 29 27 18 32 57 54 47 40 22 104 63 77 87 131 131 119 103 84 87
48 42 35 21 23 57 26 40 61 34 28 36 18 28 8 39 63 71 71 53 61 26 50 63 54 19 22 18 27 56 72 27 20 39 44 88 126 109 55 60 40 46 41 36
22 25 27 38 36 49 40 83 59 29 26 10 17 3 -4 44 93 85 67 45 38 37 22 22 19 20 21 8 32 24 26 -1 -11 -2 7 0 -8 -19 -3 10 3 -3 -15 10
28 16 17 13 25 39 112 90 94 20 -11 -12 -11 -5 -7 38 93 99 76 70 32 40 32 14 -13 -22 -17 6 -11 -14 -24 -39 -30 -6 -6 -4 -3 -11 -14 -1 8 14 15 26
18 24 36 31 41 21 17 68 4 -25 -18 -16 -24 -21 11 43 91 115 105 96 61 36 39 35 1 -18 -14 -11 -13 -19 -19 -12 -12 -2 -4 -1 12 11 5 7 8 20 22 29
29 47 27 16 0 -3 21 36 28 -6 -21 -9 -5 19 25 46 79 120 115 105 104 53 53 48 29 -1 -2 5 -1 -20 -22 -3 16 19 12 14 16 21 29 31 22 25 21 28
40 22 31 34 14 -20 -6 -1 -22 -10 3 8 14 20 40 62 89 140 139 119 105 93 66 52 58 28 11 3 -2 -9 0 19 38 33 18 16 22 24 29 34 39 57 57 65
Wind_Speed
42 46 63 62 54 46 49 54 57 56 55 64 75 81 84 81 80 83 83 83 86 87 80 74 75 77 74 72 69 63 61 55 51 49 46 48 50 50 49 46 43 41 36 29
30 48 41 46 51 50 49 52 55 55 51 60 72 87 86 84 82 83 84 84 84 83 85 83 80 75 72 70 68 65 58 56 55 54 54 54 52 56 52 52 48 43 38 34
55 33 33 36 49 52 51 53 54 58 55 56 70 80 67 58 60 62 64 66 69 69 74 73 68 68 68 68 67 65 58 54 54 55 57 58 59 61 57 55 53 46 43 41
41 34 29 38 45 46 59 51 47 48 55 66 54 73 67 60 56 47 40 46 50 55 60 58 60 60 58 59 59 59 60 58 56 52 54 60 63 65 63 60 58 56 50 47
42 36 31 38 38 36 44 32 39 44 50 57 54 56 51 48 49 38 44 44 44 48 50 53 53 53 54 57 58 53 53 55 55 51 52 58 65 69 70 68 66 64 58 50
29 30 33 36 26 34 23 33 40 45 49 57 49 47 47 34 35 39 36 41 47 51 52 52 53 52 52 53 53 53 52 50 47 51 53 59 63 66 67 67 67 65 64 60
29 32 32 26 27 29 36 41 52 51 48 52 41 45 46 39 38 31 34 45 54 56 58 61 63 64 62 61 60 58 55 53 49 49 52 57 63 68 72 70 66 63 65 66
39 42 34 36 37 39 38 39 42 52 47 45 38 43 37 34 26 25 39 53 59 61 64 68 70 72 73 71 69 65 63 63 58 56 55 56 59 63 66 68 72 71 67 63
35 36 35 34 33 33 36 39 35 39 43 50 43 42 38 23 25 37 53 64 69 70 74 77 76 79 80 78 80 77 74 72 70 68 66 66 66 66 68 69 68 70 70 67
34 34 35 31 28 30 33 19 38 40 44 47 42 42 37 30 37 48 68 76 75 75 79 79 77 82 83 83 82 75 75 73 72 73 74 75 76 75 75 72 72 71 66 61
30 33 37 30 44 39 34 37 32 30 34 37 40 39 33 32 39 58 75 74 73 78 80 78 80 81 79 76 72 74 74 69 71 73 75 77 76 74 71 70 67 65 61 57
28 27 30 35 33 36 35 35 31 37 38 36 39 46 34 36 44 71 71 73 71 75 76 73 73 74 76 66 61 56 53 54 60 66 71 74 73 69 65 60 55 50 51 49
32 29 29 33 38 37 38 35 31 27 30 37 39 40 35 47 71 70 72 72 73 74 77 70 71 73 66 62 59 55 49 54 63 69 73 70 65 59 55 50 45 42 41 41
34 34 33 34 31 31 36 38 34 35 38 39 45 54 65 65 68 70 73 69 74 74 71 70 72 64 57 53 53 50 55 56 57 58 59 59 50 44 38 36 36 36 36 32
39 38 41 45 43 39 39 40 37 35 39 39 44 48 62 63 64 67 69 68 71 73 71 70 63 49 52 48 51 53 53 54 56 56 53 47 39 34 30 28 26 26 24 21
40 42 38 42 41 49 54 55 45 49 58 67 65 63 55 55 62 65 63 69 74 69 68 66 52 39 46 45 51 52 52 53 51 46 42 35 30 29 27 26 24 19 14 11
35 37 38 41 41 45 52 55 16 36 39 45 54 51 56 57 63 64 63 64 68 64 63 64 50 40 42 43 45 51 50 46 44 43 38 33 29 27 26 21 19 16 12 7
29 33 38 42 40 45 37 35 25 6 48 42 53 51 45 49 49 44 50 60 64 63 56 55 44 40 39 38 40 43 44 40 43 43 40 35 30 27 26 19 18 16 9 10
31 33 37 41 44 48 37 26 23 27 29 33 43 43 42 35 3 36 45 51 59 57 45 46 44 39 38 42 41 43 45 42 42 41 40 40 31 32 29 29 23 24 11 10
27 29 37 39 43 42 34 27 27 28 38 37 41 38 33 32 42 41 41 43 51 53 48 43 42 39 42 39 40 44 44 43 42 41 43 39 26 30 28 24 28 26 25 22
37 40 47 46 47 48 47 43 32 38 37 42 42 37 31 22 22 33 37 43 47 51 50 44 43 40 41 41 40 44 43 44 43 46 48 44 30 43 48 47 35 42 31 33
36 36 41 39 43 49 35 27 37 41 44 43 41 39 30 13 22 28 35 41 46 49 51 48 44 41 40 39 42 47 51 51 51 48 55 57 52 46 51 49 46 41 38 37
42 44 41 39 44 39 34 43 52 48 45 44 43 37 25 13 16 21 29 36 40 44 47 48 46 46 46 45 40 49 51 52 54 51 51 52 52 50 48 46 44 40 38 38
46 42 46 45 43 46 49 52 42 41 46 49 48 40 10 16 15 17 22 29 33 35 39 42 42 42 43 43 45 46 48 49 49 51 50 49 48 46 44 42 41 40 39 38
45 38 47 56 59 56 49 41 48 52 53 54 53 39 22 18 13 14 19 22 25 28 31 34 37 37 37 39 40 42 43 45 46 47 45 44 43 43 42 42 41 41 40 38
49 52 55 58 52 56 64 65 65 63 59 57 53 44 33 18 13 13 16 17 18 20 23 27 29 32 31 35 38 39 39 40 41 40 40 39 39 39 39 40 41 43 42 42
Wind_Direction
221 229 230 231 238 251 252 254 257 264 269 271 268 270 270 273 276 275 276 277 278 278 283 285 284 283 282 280 279 277 274 272 271 269 267 268 267 269 270 269 267 269 266 258
232 232 241 235 239 247 252 255 260 268 273 275 274 271 274 273 276 276 277 278 280 283 285 286 285 285 283 281 280 279 276 274 269 267 268 270 268 272 268 269 268 265 259 257
228 240 233 241 239 242 251 255 261 266 275 281 279 274 279 284 288 288 287 286 287 287 291 292 292 289 287 284 282 280 279 276 275 269 268 271 273 274 272 270 269 263 261 260
244 243 245 246 243 246 249 260 266 274 275 270 285 271 280 286 289 298 308 305 297 300 306 307 302 299 298 296 291 285 279 277 277 275 271 267 267 268 270 270 268 267 261 259
243 239 242 241 247 245 255 266 270 277 278 278 279 277 287 293 289 299 309 318 317 314 317 319 318 313 308 305 302 300 293 282 275 274 271 272 272 273 274 273 272 269 265 259
247 249 250 252 264 258 254 269 278 280 278 273 280 278 287 298 303 304 316 325 323 321 325 325 324 322 319 317 316 312 305 299 288 279 275 273 274 275 275 273 271 269 267 264
243 249 257 259 258 263 265 266 266 270 270 271 284 283 282 298 307 315 320 323 322 322 320 319 317 314 314 315 314 313 310 306 303 295 287 281 277 277 274 273 272 271 269 266
239 244 250 256 261 260 264 266 264 265 272 278 288 283 293 308 317 330 325 322 321 320 319 316 314 312 308 308 308 309 307 303 301 298 293 290 286 283 281 278 273 270 269 268
241 249 254 261 263 263 264 267 276 279 285 281 286 292 304 318 312 315 314 316 316 316 315 313 313 311 308 306 303 303 301 299 297 295 293 290 289 286 283 280 276 274 272 269
250 252 257 264 270 277 272 279 269 273 276 274 285 288 290 297 304 311 311 314 315 318 316 317 315 314 311 309 307 302 300 298 297 296 295 292 289 286 284 282 279 274 274 272
254 260 254 262 256 258 263 264 277 282 284 284 288 293 302 302 314 313 314 317 319 319 318 317 320 323 323 320 315 307 300 297 297 298 297 295 293 291 287 283 281 276 273 273
261 263 259 261 270 268 267 269 273 273 276 286 291 292 309 309 318 316 315 316 321 322 327 329 332 336 336 336 334 330 322 310 305 303 301 299 297 294 289 286 283 279 276 274
249 264 260 261 263 262 263 266 272 286 293 287 293 301 313 308 303 308 310 315 324 328 329 338 339 339 342 347 349 348 342 326 315 308 304 302 300 297 292 287 284 282 279 275
249 256 259 259 270 267 267 265 269 274 286 291 290 295 282 288 298 300 308 324 325 333 337 338 337 342 353 358 354 358 351 336 325 316 311 311 308 308 303 297 293 289 284 274
244 250 250 251 254 263 268 269 272 276 281 294 303 305 282 284 288 295 312 331 337 335 337 340 349 0 3 10 4 3 357 349 335 324 320 315 314 317 316 313 309 303 291 281
247 248 258 258 265 258 257 256 272 269 263 253 251 260 260 270 304 317 329 329 332 339 342 345 5 18 14 18 2 5 9 3 353 349 342 338 330 324 325 323 317 313 301 291
250 254 262 262 272 273 265 252 293 285 286 279 262 243 274 283 302 324 333 336 338 344 350 348 9 22 24 27 18 5 11 21 29 13 357 354 351 345 347 354 347 333 335 4
266 271 273 269 277 267 283 298 320 360 265 204 248 250 252 266 276 1 356 342 342 344 354 2 24 29 35 37 39 33 29 44 29 2 3 11 14 12 23 1 11 10 337 319
275 281 277 274 271 270 287 304 313 297 281 290 249 259 262 256 30 27 18 5 354 352 10 10 21 35 41 33 41 39 19 28 22 22 1 17 12 27 31 39 32 36 6 355
289 292 280 282 275 270 286 291 303 309 265 295 297 267 253 275 360 20 29 29 16 359 8 23 20 34 31 48 49 39 38 45 59 65 43 31 8 27 32 31 42 45 43 47
273 275 268 269 268 267 255 257 293 264 266 286 287 270 257 56 57 31 31 29 32 11 10 15 19 25 35 30 58 41 47 59 74 62 74 53 26 59 71 72 55 72 49 48
274 276 273 276 269 253 266 286 269 272 279 276 272 273 252 95 49 35 27 26 28 30 18 21 22 25 31 27 52 57 62 83 73 63 80 77 71 62 70 68 65 59 58 51
271 262 271 271 254 267 273 271 267 268 262 271 266 262 237 79 63 42 27 26 29 36 35 36 35 43 47 52 45 63 68 72 72 66 65 69 70 69 71 69 63 53 46 42
263 273 269 265 268 266 266 269 276 282 276 278 271 259 74 51 62 48 33 22 25 41 46 45 43 44 49 55 61 63 72 75 76 74 72 72 68 65 60 55 54 50 43 36
272 286 269 260 262 273 276 283 281 283 278 284 300 346 23 33 52 50 28 23 27 41 51 54 57 54 53 63 64 70 79 81 77 75 72 67 63 59 52 44 42 38 33 31
275 274 269 265 277 275 269 272 277 277 278 289 308 333 356 23 41 35 21 13 29 39 54 55 55 62 56 68 77 76 82 83 78 70 68 65 60 53 45 39 33 28 27 26